Location: Bishopstone
(51.0167°N, 1.9000°W)
Time: 03:30:13
(UTC+00:00)

Cosmos 1452 Rocket - Pass Details

Date: 16 September 2019
Orbit: 767 x 774 km, 74.1° (Epoch: 17 October)

Event Time Altitude Azimuth Distance (km) Brightness Sun altitude
Exits shadow 22:04:22 48° 3° (N) 1,002 4.3 -30.9°
Drops below altitude 10° 22:08:14 10° 21° (NNE) 2,320 6.3 -31.2°
Sets 22:10:39 0° 24° (NNE) 3,251 7.2 -31.4°
